This is the latest recevied weather packets stored in our database for station/object NT9G. If no packets are shown the sender has not sent any weather packets the latest 10 day(s).
| Time | Temp. | Humidity | Pressure | Rain* | Wind** | Luminosity | Snow |
|---|---|---|---|---|---|---|---|
| 1777162613 | 20° C | 41% | 1013.7 hPa | 0 mm | - | - | - |
| 1777162313 | 20° C | 39% | 1013.7 hPa | 0 mm | - | - | - |
| 1777161713 | 20.56° C | 38% | 1013.5 hPa | 0 mm | - | - | - |
| 1777160812 | 21.11° C | 36% | 1013.5 hPa | 0 mm | - | - | - |
| 1777160512 | 21.11° C | 36% | 1013.5 hPa | 0 mm | - | - | - |
| 1777160211 | 21.67° C | 36% | 1013.4 hPa | 0 mm | - | - | - |
| 1777159611 | 21.67° C | 34% | 1013.5 hPa | 0 mm | - | - | - |
| 1777159310 | 22.22° C | 33% | 1013.5 hPa | 0 mm | - | - | - |
| 1777159010 | 22.22° C | 32% | 1013.5 hPa | 0 mm | - | - | - |
| 1777158710 | 22.78° C | 34% | 1013.5 hPa | 0 mm | - | - | - |
| 1777158410 | 22.78° C | 34% | 1013.5 hPa | 0 mm | - | - | - |
| 1777158109 | 22.78° C | 32% | 1013.5 hPa | 0 mm | - | - | - |
| 1777157208 | 23.33° C | 33% | 1013.4 hPa | 0 mm | - | - | - |
| 1777156908 | 22.78° C | 34% | 1013.3 hPa | 0 mm | - | - | - |
| 1777156608 | 23.33° C | 34% | 1013.3 hPa | 0 mm | - | - | - |
| 1777156308 | 23.33° C | 34% | 1013.3 hPa | 0 mm | - | - | - |
| 1777156007 | 23.33° C | 32% | 1013.4 hPa | 0 mm | - | - | - |
| 1777155707 | 23.89° C | 31% | 1013.3 hPa | 0 mm | - | - | - |
| 1777155407 | 23.89° C | 31% | 1013.4 hPa | 0 mm | - | - | - |
| 1777155106 | 23.89° C | 34% | 1013.4 hPa | 0 mm | - | - | - |
| 1777154806 | 23.89° C | 33% | 1013.4 hPa | 0 mm | - | - | - |
| 1777154506 | 23.89° C | 32% | 1013.4 hPa | 0 mm | - | - | - |
| 1777154205 | 23.33° C | 34% | 1013.4 hPa | 0 mm | - | - | - |
| 1777153905 | 22.78° C | 32% | 1013.3 hPa | 0 mm | - | - | - |
| 1777153605 | 23.33° C | 35% | 1013.4 hPa | 0 mm | - | - | - |
* Rain since midnight (hover to see other rain measurements)
** Current wind speed in m/s (hover to see current wind gust speed)